METOP-B

Last updated on Wed Aug 19 2026 00:02:40 GMT+0000 (Coordinated Universal Time)

1 38771U 12049A 26230.62613094 .00000041 00000+0 38516-4 0 9997 2 38771 98.6457 280.8650 0002912 143.2082 216.9296 14.21453638722137
UTC large
Height (km)
Speed (km/s)
/
Latitude / Longitude
Inclination (degrees)
Orbital Period (minutes)
Azimuth
Elevation
Range (km)
Doppler Factor

Next 0 passes for location: London (51.5072 / 0.1276)

No passes found over London.
METOP-B